Location: Dehesa de la Cepeda
(40.6574°N, 4.3013°W)
Time: 09:23:41
(UTC+00:00)

Transit 2A Rocket - Pass Details

Date: 05 August 2021
Orbit: 586 x 917 km, 66.7° (Epoch: 24 September)

Event Time Altitude Azimuth Distance (km) Brightness Sun altitude
Rises 21:20:57 0° 336° (NNW) 3,287 9.5 -18.7°
Reaches altitude 10° 21:23:28 10° 345° (NNW) 2,406 8.4 -19.1°
Maximum altitude 21:28:42 39° 53° (NE) 1,264 6.0 -19.8°
Enters shadow 21:30:51 29° 97° (E) 1,546 6.1 -20.1°
Drops below altitude 10° 21:34:14 10° 122° (ESE) 2,559 - -20.5°
Sets 21:36:58 0° 129° (SE) 3,520 - -20.9°
